BCS409 EPWA-LSZH

Flight info

Callsign BCS409
Flight time 1h 34m
Altitude 34000
Route SOXER DCT VAMPU N869 AGALU DCT TOMTI DCT ASTEL DCT OKG DCT AMOSA N869 TEDGO T724 RILAX
Aircraft A306/H-SDE3FGHIRWY/LB1

Departure

Time 2026-05-05 18:57
Airport Warsaw Chopin Airport (EPWA)

Arrival

Time 2026-05-05 20:31
Airport Zürich Airport (LSZH)
Time Latitude Longitude Altitude Speed Heading
2026-05-05 18:36 52.15470 20.98234 356 ft 0 kts 61°
2026-05-05 18:48 52.15469 20.98231 345 ft 2 kts 61°
2026-05-05 18:49 52.15456 20.98194 355 ft 4 kts 62°
2026-05-05 18:49 52.15446 20.98161 356 ft 3 kts 61°
2026-05-05 18:49 52.15430 20.98131 356 ft 4 kts 19°
2026-05-05 18:49 52.15407 20.98131 356 ft 4 kts 335°
2026-05-05 18:50 52.15401 20.98134 356 ft 1 kts 332°
2026-05-05 18:51 52.15431 20.98109 353 ft 13 kts 332°
2026-05-05 18:51 52.15518 20.98033 345 ft 15 kts 332°
2026-05-05 18:52 52.15643 20.98034 353 ft 19 kts 25°
2026-05-05 18:52 52.15762 20.98124 348 ft 19 kts 24°
2026-05-05 18:52 52.15874 20.98206 352 ft 17 kts 24°
2026-05-05 18:52 52.15973 20.98279 355 ft 9 kts 24°
2026-05-05 18:53 52.15976 20.98282 355 ft 0 kts 24°
2026-05-05 18:54 52.15994 20.98295 349 ft 10 kts 24°
2026-05-05 18:54 52.16063 20.98346 355 ft 12 kts 24°
2026-05-05 18:54 52.16130 20.98301 351 ft 5 kts 292°
2026-05-05 18:55 52.16130 20.98300 350 ft 0 kts 292°
2026-05-05 18:56 52.16185 20.98098 351 ft 58 kts 295°
2026-05-05 18:57 52.16464 20.97111 349 ft 131 kts 294°
2026-05-05 18:57 52.16928 20.95457 379 ft 187 kts 294°
2026-05-05 18:57 52.17493 20.93483 1144 ft 195 kts 294°
2026-05-05 18:57 52.18053 20.91472 2169 ft 195 kts 286°
2026-05-05 18:58 52.18234 20.89265 3010 ft 202 kts 266°
2026-05-05 18:58 52.18147 20.86832 3492 ft 229 kts 263°
2026-05-05 18:58 52.18020 20.84116 4057 ft 249 kts 265°
2026-05-05 18:58 52.17783 20.81285 5043 ft 254 kts 256°
2026-05-05 18:59 52.17389 20.78460 6178 ft 257 kts 255°
2026-05-05 18:59 52.16974 20.75623 7300 ft 258 kts 254°
2026-05-05 18:59 52.16548 20.72775 8467 ft 260 kts 253°
2026-05-05 18:59 52.16117 20.69910 9646 ft 261 kts 253°
2026-05-05 19:00 52.15673 20.66986 10471 ft 274 kts 253°
2026-05-05 19:00 52.15193 20.63847 10872 ft 298 kts 253°
2026-05-05 19:00 52.14674 20.60451 11232 ft 320 kts 253°
2026-05-05 19:00 52.14125 20.56832 11628 ft 338 kts 254°
2026-05-05 19:01 52.13554 20.53049 12222 ft 348 kts 255°
2026-05-05 19:01 52.12976 20.49207 12941 ft 353 kts 255°
2026-05-05 19:01 52.12387 20.45300 13693 ft 357 kts 255°
2026-05-05 19:01 52.11791 20.41364 14348 ft 361 kts 255°
2026-05-05 19:02 52.11183 20.37362 14967 ft 367 kts 255°
2026-05-05 19:02 52.10563 20.33305 15587 ft 372 kts 255°
2026-05-05 19:02 52.09933 20.29195 16221 ft 377 kts 255°
2026-05-05 19:02 52.09291 20.25025 16853 ft 382 kts 255°
2026-05-05 19:03 52.08641 20.20808 17489 ft 388 kts 255°
2026-05-05 19:03 52.07979 20.16527 18103 ft 393 kts 255°
2026-05-05 19:03 52.07308 20.12199 18634 ft 397 kts 255°
2026-05-05 19:03 52.06630 20.07842 19208 ft 400 kts 255°
2026-05-05 19:04 52.05943 20.03435 19766 ft 403 kts 255°
2026-05-05 19:04 52.05252 19.99014 20321 ft 406 kts 255°
2026-05-05 19:04 52.04551 19.94558 20870 ft 408 kts 255°
2026-05-05 19:04 52.03748 19.90128 21390 ft 411 kts 252°
2026-05-05 19:05 52.02828 19.85696 21849 ft 415 kts 250°
2026-05-05 19:05 52.01850 19.81269 22333 ft 419 kts 249°
2026-05-05 19:05 52.00846 19.76812 22813 ft 422 kts 249°
2026-05-05 19:05 51.99839 19.72335 23274 ft 425 kts 249°
2026-05-05 19:06 51.98830 19.67810 23657 ft 428 kts 250°
2026-05-05 19:06 51.97821 19.63252 24062 ft 430 kts 250°
2026-05-05 19:06 51.96815 19.58681 24453 ft 432 kts 250°
2026-05-05 19:06 51.95807 19.54088 24820 ft 434 kts 250°
2026-05-05 19:07 51.94794 19.49473 25183 ft 436 kts 250°
2026-05-05 19:07 51.93774 19.44838 25531 ft 438 kts 250°
2026-05-05 19:07 51.92747 19.40183 25889 ft 439 kts 250°
2026-05-05 19:07 51.91716 19.35519 26221 ft 441 kts 250°
2026-05-05 19:08 51.90676 19.30831 26555 ft 443 kts 250°
2026-05-05 19:08 51.89632 19.26134 26867 ft 445 kts 250°
2026-05-05 19:08 51.88581 19.21419 27190 ft 446 kts 250°
2026-05-05 19:08 51.87523 19.16682 27485 ft 448 kts 250°
2026-05-05 19:09 51.86462 19.11930 27777 ft 450 kts 250°
2026-05-05 19:09 51.85413 19.07173 28166 ft 449 kts 250°
2026-05-05 19:09 51.84373 19.02424 28606 ft 447 kts 250°
2026-05-05 19:09 51.83340 18.97690 29063 ft 445 kts 250°
2026-05-05 19:10 51.82323 18.93042 29487 ft 444 kts 250°
2026-05-05 19:10 51.81280 18.88287 29919 ft 442 kts 250°
2026-05-05 19:10 51.80265 18.83671 30283 ft 441 kts 250°
2026-05-05 19:10 51.79236 18.79010 30654 ft 440 kts 250°
2026-05-05 19:11 51.78209 18.74365 31080 ft 438 kts 251°
2026-05-05 19:11 51.77188 18.69763 31573 ft 434 kts 251°
2026-05-05 19:11 51.76170 18.65184 31976 ft 432 kts 251°
2026-05-05 19:11 51.75156 18.60628 32253 ft 433 kts 251°
2026-05-05 19:12 51.74135 18.56054 32530 ft 434 kts 251°
2026-05-05 19:12 51.73109 18.51470 32909 ft 433 kts 251°
2026-05-05 19:12 51.72087 18.46915 33299 ft 432 kts 251°
2026-05-05 19:12 51.71065 18.42367 33672 ft 431 kts 251°
2026-05-05 19:13 51.70044 18.37832 33779 ft 427 kts 251°
2026-05-05 19:13 51.69048 18.33423 33780 ft 412 kts 251°
2026-05-05 19:13 51.67111 18.24875 33789 ft 403 kts 251°
2026-05-05 19:14 51.65190 18.16419 33806 ft 402 kts 250°
2026-05-05 19:14 51.63269 18.07997 33784 ft 399 kts 250°
2026-05-05 19:15 51.61354 17.99638 33783 ft 398 kts 250°
2026-05-05 19:15 51.59424 17.91248 33796 ft 401 kts 250°
2026-05-05 19:16 51.57479 17.82817 33789 ft 402 kts 250°
2026-05-05 19:16 51.55527 17.74391 33793 ft 402 kts 250°
2026-05-05 19:17 51.53568 17.65965 33790 ft 402 kts 250°
2026-05-05 19:17 51.51617 17.57607 33784 ft 402 kts 250°
2026-05-05 19:18 51.49648 17.49204 33790 ft 402 kts 249°
2026-05-05 19:18 51.47676 17.40821 33790 ft 402 kts 249°
2026-05-05 19:19 51.45707 17.32489 33794 ft 402 kts 249°
2026-05-05 19:19 51.43680 17.23946 33792 ft 418 kts 249°
2026-05-05 19:20 51.41574 17.15103 33792 ft 431 kts 249°
2026-05-05 19:20 51.39403 17.06026 33795 ft 441 kts 249°
2026-05-05 19:21 51.37197 16.96843 33802 ft 442 kts 249°
2026-05-05 19:21 51.34987 16.87679 33788 ft 441 kts 249°
2026-05-05 19:22 51.32773 16.78542 33793 ft 440 kts 248°
2026-05-05 19:22 51.30554 16.69417 33792 ft 441 kts 248°
2026-05-05 19:23 51.28324 16.60289 33798 ft 442 kts 248°
2026-05-05 19:23 51.26084 16.51155 33798 ft 442 kts 248°
2026-05-05 19:24 51.23836 16.42031 33795 ft 442 kts 248°
2026-05-05 19:24 51.21584 16.32924 33803 ft 439 kts 248°
2026-05-05 19:25 51.19344 16.23903 33804 ft 437 kts 248°
2026-05-05 19:25 51.17099 16.14897 33806 ft 437 kts 248°
2026-05-05 19:26 51.14847 16.05903 33807 ft 438 kts 248°
2026-05-05 19:26 51.12584 15.96898 33806 ft 438 kts 248°
2026-05-05 19:27 51.10311 15.87893 33807 ft 438 kts 248°
2026-05-05 19:27 51.08033 15.78903 33815 ft 438 kts 248°
2026-05-05 19:28 51.05756 15.69951 33804 ft 435 kts 248°
2026-05-05 19:28 51.03494 15.61096 33799 ft 435 kts 248°
2026-05-05 19:29 51.01211 15.52194 33802 ft 435 kts 248°
2026-05-05 19:29 50.98919 15.43289 33796 ft 437 kts 247°
2026-05-05 19:30 50.96987 15.35813 33793 ft 437 kts 247°
2026-05-05 19:30 50.94743 15.26861 33791 ft 437 kts 250°
2026-05-05 19:31 50.92852 15.17773 33786 ft 437 kts 251°
2026-05-05 19:31 50.91044 15.08587 33777 ft 436 kts 251°
2026-05-05 19:32 50.89204 14.99422 33783 ft 436 kts 251°
2026-05-05 19:32 50.87329 14.90284 33782 ft 436 kts 251°
2026-05-05 19:33 50.85006 14.81424 33769 ft 436 kts 244°
2026-05-05 19:33 50.82362 14.72779 33776 ft 437 kts 243°
2026-05-05 19:34 50.79660 14.64171 33778 ft 437 kts 242°
2026-05-05 19:35 50.75607 14.51300 33771 ft 436 kts 242°
2026-05-05 19:35 50.72912 14.42744 33771 ft 435 kts 242°
2026-05-05 19:36 50.70212 14.34191 33767 ft 435 kts 242°
2026-05-05 19:36 50.67503 14.25640 33775 ft 436 kts 242°
2026-05-05 19:37 50.64786 14.17095 33765 ft 436 kts 242°
2026-05-05 19:37 50.62061 14.08558 33779 ft 436 kts 242°
2026-05-05 19:38 50.59331 14.00030 33767 ft 436 kts 241°
2026-05-05 19:38 50.56592 13.91507 33743 ft 436 kts 241°
2026-05-05 19:39 50.53848 13.83000 33761 ft 436 kts 241°
2026-05-05 19:39 50.51097 13.74494 33749 ft 437 kts 241°
2026-05-05 19:40 50.48332 13.65977 33751 ft 438 kts 241°
2026-05-05 19:40 50.45559 13.57463 33755 ft 439 kts 241°
2026-05-05 19:41 50.42776 13.48949 33758 ft 439 kts 240°
2026-05-05 19:41 50.39985 13.40440 33758 ft 439 kts 240°
2026-05-05 19:42 50.37190 13.31946 33759 ft 438 kts 240°
2026-05-05 19:42 50.34408 13.23523 33757 ft 438 kts 240°
2026-05-05 19:43 50.31602 13.15051 33766 ft 438 kts 240°
2026-05-05 19:43 50.28788 13.06588 33821 ft 439 kts 240°
2026-05-05 19:44 50.25969 12.98136 33826 ft 439 kts 240°
2026-05-05 19:44 50.23132 12.89659 33830 ft 444 kts 240°
2026-05-05 19:45 50.20254 12.81094 33817 ft 446 kts 240°
2026-05-05 19:45 50.17369 12.72529 33811 ft 446 kts 240°
2026-05-05 19:46 50.14450 12.63898 33818 ft 453 kts 239°
2026-05-05 19:46 50.11497 12.55194 33804 ft 455 kts 239°
2026-05-05 19:47 50.08536 12.46491 33772 ft 455 kts 239°
2026-05-05 19:47 50.05572 12.37795 33777 ft 454 kts 239°
2026-05-05 19:48 50.02627 12.29105 33776 ft 454 kts 239°
2026-05-05 19:48 49.99683 12.20430 33784 ft 453 kts 239°
2026-05-05 19:49 49.96745 12.11805 33772 ft 449 kts 239°
2026-05-05 19:49 49.93818 12.03250 33775 ft 448 kts 239°
2026-05-05 19:50 49.90887 11.94717 33782 ft 448 kts 239°
2026-05-05 19:50 49.87948 11.86186 33810 ft 448 kts 239°
2026-05-05 19:51 49.84998 11.77652 33785 ft 450 kts 239°
2026-05-05 19:51 49.82034 11.69107 33793 ft 450 kts 238°
2026-05-05 19:52 49.79098 11.60664 33792 ft 447 kts 238°
2026-05-05 19:52 49.76143 11.52198 33791 ft 447 kts 238°
2026-05-05 19:53 49.73183 11.43749 33804 ft 447 kts 238°
2026-05-05 19:53 49.70218 11.35314 33807 ft 447 kts 238°
2026-05-05 19:54 49.67242 11.26875 33819 ft 449 kts 238°
2026-05-05 19:54 49.64246 11.18409 33833 ft 450 kts 238°
2026-05-05 19:55 49.61236 11.09927 33828 ft 450 kts 238°
2026-05-05 19:55 49.58224 11.01465 33828 ft 450 kts 238°
2026-05-05 19:56 49.55207 10.93018 33829 ft 450 kts 238°
2026-05-05 19:56 49.52167 10.84587 33827 ft 450 kts 236°
2026-05-05 19:57 49.48345 10.77060 33851 ft 446 kts 225°
2026-05-05 19:57 49.44050 10.70133 33853 ft 448 kts 223°
2026-05-05 19:58 49.39678 10.63282 33841 ft 449 kts 224°
2026-05-05 19:58 49.35362 10.56364 33857 ft 449 kts 224°
2026-05-05 19:59 49.30991 10.49518 33842 ft 449 kts 223°
2026-05-05 19:59 49.26573 10.42782 33852 ft 449 kts 223°
2026-05-05 20:00 49.22157 10.36054 33845 ft 447 kts 223°
2026-05-05 20:00 49.17785 10.29291 33838 ft 447 kts 223°
2026-05-05 20:01 49.13542 10.22343 33837 ft 448 kts 228°
2026-05-05 20:01 49.09583 10.14980 33839 ft 450 kts 229°
2026-05-05 20:02 49.05657 10.07532 33831 ft 449 kts 229°
2026-05-05 20:02 49.01760 10.00141 33828 ft 446 kts 229°
2026-05-05 20:03 48.97866 9.92795 33829 ft 446 kts 229°
2026-05-05 20:03 48.93966 9.85471 33831 ft 446 kts 229°
2026-05-05 20:04 48.90056 9.78155 33834 ft 446 kts 229°
2026-05-05 20:04 48.86155 9.70871 33830 ft 442 kts 229°
2026-05-05 20:05 48.82291 9.63676 33841 ft 439 kts 229°
2026-05-05 20:05 48.78410 9.56474 33832 ft 442 kts 229°
2026-05-05 20:06 48.74515 9.49260 33832 ft 442 kts 229°
2026-05-05 20:06 48.70614 9.42056 33834 ft 442 kts 229°
2026-05-05 20:07 48.66711 9.34867 33858 ft 440 kts 229°
2026-05-05 20:07 48.62794 9.27782 33853 ft 439 kts 226°
2026-05-05 20:08 48.58181 9.21788 33853 ft 437 kts 217°
2026-05-05 20:08 48.53317 9.16272 33852 ft 437 kts 216°
2026-05-05 20:09 48.48459 9.10905 33508 ft 431 kts 216°
2026-05-05 20:09 48.46021 9.08212 32565 ft 429 kts 216°
2026-05-05 20:09 48.43632 9.05568 31424 ft 433 kts 216°
2026-05-05 20:09 48.41206 9.02879 30577 ft 431 kts 216°
2026-05-05 20:10 48.38823 9.00235 29972 ft 422 kts 216°
2026-05-05 20:10 48.36481 8.97636 29327 ft 414 kts 216°
2026-05-05 20:10 48.34185 8.95091 28807 ft 404 kts 216°
2026-05-05 20:10 48.31954 8.92619 28334 ft 394 kts 216°
2026-05-05 20:11 48.29748 8.90171 27902 ft 385 kts 216°
2026-05-05 20:11 48.27648 8.87836 27467 ft 377 kts 216°
2026-05-05 20:11 48.25563 8.85514 27021 ft 370 kts 216°
2026-05-05 20:11 48.23512 8.83233 26585 ft 365 kts 216°
2026-05-05 20:12 48.21483 8.80979 26149 ft 360 kts 216°
2026-05-05 20:12 48.19481 8.78756 25734 ft 356 kts 215°
2026-05-05 20:12 48.17501 8.76565 25307 ft 352 kts 215°
2026-05-05 20:12 48.15536 8.74416 24892 ft 348 kts 215°
2026-05-05 20:13 48.13588 8.72293 24484 ft 345 kts 214°
2026-05-05 20:13 48.11657 8.70191 24071 ft 343 kts 214°
2026-05-05 20:13 48.09732 8.68098 23651 ft 340 kts 215°
2026-05-05 20:13 48.07828 8.66028 23190 ft 337 kts 215°
2026-05-05 20:14 48.05939 8.63977 22749 ft 333 kts 215°
2026-05-05 20:14 48.04685 8.62616 22475 ft 329 kts 215°
2026-05-05 20:14 48.02835 8.60610 22076 ft 327 kts 215°
2026-05-05 20:14 48.00996 8.58617 21665 ft 326 kts 216°
2026-05-05 20:15 47.99162 8.56631 21245 ft 325 kts 216°
2026-05-05 20:15 47.97337 8.54664 20857 ft 323 kts 214°
2026-05-05 20:15 47.95392 8.53017 20443 ft 321 kts 203°
2026-05-05 20:15 47.93235 8.52201 20038 ft 322 kts 187°
2026-05-05 20:16 47.91001 8.52349 19637 ft 323 kts 174°
2026-05-05 20:16 47.88795 8.52990 19204 ft 323 kts 171°
2026-05-05 20:16 47.86602 8.53706 18779 ft 322 kts 171°
2026-05-05 20:16 47.84421 8.54415 18355 ft 321 kts 171°
2026-05-05 20:17 47.82241 8.55114 17913 ft 319 kts 171°
2026-05-05 20:17 47.80078 8.55799 17484 ft 317 kts 171°
2026-05-05 20:17 47.77920 8.56478 17068 ft 316 kts 171°
2026-05-05 20:17 47.75775 8.57153 16647 ft 314 kts 171°
2026-05-05 20:18 47.73672 8.57813 16247 ft 312 kts 171°
2026-05-05 20:18 47.71555 8.58473 15836 ft 310 kts 172°
2026-05-05 20:18 47.69463 8.59224 15416 ft 310 kts 165°
2026-05-05 20:18 47.67527 8.60671 14990 ft 316 kts 148°
2026-05-05 20:19 47.65946 8.62958 14582 ft 319 kts 135°
2026-05-05 20:19 47.64546 8.65501 14134 ft 319 kts 133°
2026-05-05 20:19 47.63170 8.68072 13698 ft 317 kts 133°
2026-05-05 20:19 47.61802 8.70615 13229 ft 315 kts 133°
2026-05-05 20:20 47.60432 8.73144 12822 ft 313 kts 133°
2026-05-05 20:20 47.59072 8.75644 12401 ft 310 kts 134°
2026-05-05 20:20 47.57737 8.78092 12175 ft 300 kts 134°
2026-05-05 20:20 47.56477 8.80486 12001 ft 291 kts 129°
2026-05-05 20:21 47.55597 8.83153 11759 ft 289 kts 109°
2026-05-05 20:21 47.55240 8.86038 11606 ft 281 kts 100°
2026-05-05 20:21 47.55029 8.88893 11362 ft 276 kts 99°
2026-05-05 20:21 47.54835 8.91709 11068 ft 274 kts 99°
2026-05-05 20:22 47.54640 8.94496 10784 ft 271 kts 99°
2026-05-05 20:22 47.54441 8.97264 10477 ft 270 kts 99°
2026-05-05 20:22 47.54203 9.00031 10039 ft 272 kts 105°
2026-05-05 20:22 47.53550 9.02609 9647 ft 266 kts 126°
2026-05-05 20:23 47.52316 9.04579 9242 ft 258 kts 149°
2026-05-05 20:23 47.50709 9.05652 8827 ft 252 kts 171°
2026-05-05 20:23 47.48995 9.05796 8438 ft 247 kts 186°
2026-05-05 20:23 47.47291 9.05542 8069 ft 246 kts 189°
2026-05-05 20:24 47.45625 9.05061 7699 ft 242 kts 201°
2026-05-05 20:24 47.44164 9.03892 7335 ft 239 kts 220°
2026-05-05 20:24 47.43109 9.02003 6848 ft 242 kts 245°
2026-05-05 20:24 47.42638 8.99629 6633 ft 241 kts 262°
2026-05-05 20:25 47.42725 8.97160 6628 ft 242 kts 277°
2026-05-05 20:25 47.42973 8.94795 6651 ft 220 kts 276°
2026-05-05 20:25 47.43131 8.92676 6627 ft 198 kts 273°
2026-05-05 20:25 47.43255 8.90705 6470 ft 189 kts 273°
2026-05-05 20:26 47.43392 8.88791 6203 ft 186 kts 274°
2026-05-05 20:26 47.43529 8.86897 5887 ft 184 kts 274°
2026-05-05 20:26 47.43661 8.85051 5570 ft 183 kts 274°
2026-05-05 20:26 47.43794 8.83168 5276 ft 181 kts 274°
2026-05-05 20:27 47.43924 8.81355 5016 ft 179 kts 274°
2026-05-05 20:27 47.44054 8.79539 4756 ft 176 kts 274°
2026-05-05 20:27 47.44181 8.77771 4501 ft 170 kts 274°
2026-05-05 20:27 47.44304 8.76059 4264 ft 161 kts 273°
2026-05-05 20:28 47.44418 8.74454 4020 ft 154 kts 272°
2026-05-05 20:28 47.44527 8.72917 3795 ft 148 kts 272°
2026-05-05 20:28 47.44633 8.71429 3578 ft 143 kts 272°
2026-05-05 20:28 47.44734 8.70015 3386 ft 135 kts 273°
2026-05-05 20:29 47.44832 8.68639 3202 ft 134 kts 273°
2026-05-05 20:29 47.44930 8.67262 2989 ft 135 kts 272°
2026-05-05 20:29 47.45028 8.65890 2803 ft 136 kts 273°
2026-05-05 20:29 47.45128 8.64488 2582 ft 139 kts 273°
2026-05-05 20:30 47.45231 8.63041 2367 ft 141 kts 273°
2026-05-05 20:30 47.45332 8.61612 2140 ft 143 kts 273°
2026-05-05 20:30 47.45435 8.60129 1903 ft 144 kts 273°
2026-05-05 20:30 47.45541 8.58677 1702 ft 145 kts 274°
2026-05-05 20:31 47.45648 8.57190 1507 ft 145 kts 274°
2026-05-05 20:31 47.45752 8.55747 1415 ft 123 kts 275°
2026-05-05 20:31 47.45821 8.54784 1406 ft 77 kts 275°
2026-05-05 20:31 47.45770 8.54308 1403 ft 30 kts 246°
2026-05-05 20:32 47.45661 8.54212 1400 ft 18 kts 160°
2026-05-05 20:32 47.45600 8.54343 1402 ft 15 kts 110°
2026-05-05 20:32 47.45560 8.54515 1401 ft 20 kts 108°
2026-05-05 20:32 47.45520 8.54698 1406 ft 19 kts 108°
2026-05-05 20:33 47.45476 8.54895 1403 ft 20 kts 108°
2026-05-05 20:33 47.45436 8.55073 1407 ft 17 kts 108°
2026-05-05 20:33 47.45405 8.55220 1407 ft 14 kts 107°
2026-05-05 20:33 47.45351 8.55372 1410 ft 18 kts 122°
2026-05-05 20:34 47.45256 8.55472 1411 ft 16 kts 154°
2026-05-05 20:34 47.45155 8.55543 1415 ft 16 kts 156°
2026-05-05 20:34 47.45051 8.55611 1411 ft 17 kts 156°
2026-05-05 20:34 47.44956 8.55706 1410 ft 16 kts 113°
2026-05-05 20:35 47.44947 8.55863 1410 ft 14 kts 94°
2026-05-05 20:35 47.44887 8.55973 1413 ft 17 kts 154°
2026-05-05 20:35 47.44778 8.56048 1411 ft 18 kts 155°
2026-05-05 20:35 47.44690 8.56128 1403 ft 7 kts 105°
2026-05-05 20:36 47.44707 8.56209 1408 ft 9 kts 63°
2026-05-05 20:36 47.44716 8.56237 1409 ft 0 kts 64°